Year,Month,Day,Hour,Minute,Value (Times are PST for temperature in C)
2022,03,28,12,18,11.80
2022,03,28,12,19,11.90
2022,03,28,12,20,11.90
2022,03,28,12,21,11.90
2022,03,28,12,22,11.90
2022,03,28,12,23,11.90
2022,03,28,12,24,11.90
2022,03,28,12,25,12.00
2022,03,28,12,26,12.10
2022,03,28,12,27,12.10
2022,03,28,12,28,12.20
2022,03,28,12,29,12.20
2022,03,28,12,30,12.20
2022,03,28,12,31,12.10
2022,03,28,12,32,12.10
2022,03,28,12,33,12.00
2022,03,28,12,34,12.00
2022,03,28,12,35,12.00
2022,03,28,12,36,12.10
2022,03,28,12,37,12.10
2022,03,28,12,38,12.00
2022,03,28,12,39,12.10
2022,03,28,12,40,12.10
2022,03,28,12,41,12.10
2022,03,28,12,42,12.00
2022,03,28,12,43,11.90
2022,03,28,12,44,11.90
2022,03,28,12,45,11.90
2022,03,28,12,46,11.90
2022,03,28,12,47,11.90
2022,03,28,12,48,11.90
2022,03,28,12,49,11.90
2022,03,28,12,50,11.90
2022,03,28,12,51,12.00
2022,03,28,12,52,12.00
2022,03,28,12,53,12.00
2022,03,28,12,54,12.00
2022,03,28,12,55,12.10
2022,03,28,12,56,12.20
2022,03,28,12,57,12.20
2022,03,28,12,58,12.20
2022,03,28,12,59,12.20
2022,03,28,13,00,12.30
2022,03,28,13,01,12.20
2022,03,28,13,02,12.30
2022,03,28,13,03,12.30
2022,03,28,13,04,12.30
2022,03,28,13,05,12.30
2022,03,28,13,06,12.40
2022,03,28,13,07,12.40
2022,03,28,13,08,12.40
2022,03,28,13,09,12.50
2022,03,28,13,10,12.50
2022,03,28,13,11,12.60
2022,03,28,13,12,12.60
2022,03,28,13,13,12.60
2022,03,28,13,14,12.50
2022,03,28,13,15,12.50
2022,03,28,13,16,12.50
2022,03,28,13,17,12.50
2022,03,28,13,18,12.60
2022,03,28,13,19,12.60
2022,03,28,13,20,12.60
2022,03,28,13,21,12.60
2022,03,28,13,22,12.60
2022,03,28,13,23,12.70
2022,03,28,13,24,12.70
2022,03,28,13,25,12.70
2022,03,28,13,26,12.70
2022,03,28,13,27,12.70
2022,03,28,13,28,12.70
2022,03,28,13,29,12.70
2022,03,28,13,30,12.70
2022,03,28,13,31,12.80
2022,03,28,13,32,12.80
2022,03,28,13,33,12.90
2022,03,28,13,34,12.90
2022,03,28,13,35,12.90
2022,03,28,13,36,12.90
2022,03,28,13,37,12.80
2022,03,28,13,38,12.70
2022,03,28,13,39,12.70
2022,03,28,13,40,12.70
2022,03,28,13,41,12.70
2022,03,28,13,42,12.70
2022,03,28,13,43,12.70
2022,03,28,13,44,12.70
2022,03,28,13,45,12.80
2022,03,28,13,46,12.80
2022,03,28,13,47,12.80
2022,03,28,13,48,12.80
2022,03,28,13,49,12.80
2022,03,28,13,50,12.80
2022,03,28,13,51,12.70
2022,03,28,13,52,12.70
2022,03,28,13,53,12.70
2022,03,28,13,54,12.60
2022,03,28,13,55,12.70
2022,03,28,13,56,12.70
2022,03,28,13,57,12.70
2022,03,28,13,58,12.80
2022,03,28,13,59,12.70
2022,03,28,14,00,12.70
2022,03,28,14,01,12.70
2022,03,28,14,02,12.70
2022,03,28,14,03,12.70
2022,03,28,14,04,12.70
2022,03,28,14,05,12.70
2022,03,28,14,06,12.70
2022,03,28,14,07,12.70
2022,03,28,14,08,12.70
2022,03,28,14,09,12.70
2022,03,28,14,10,12.70
2022,03,28,14,11,12.80
2022,03,28,14,12,12.80
2022,03,28,14,13,12.80
2022,03,28,14,14,12.80
2022,03,28,14,15,12.80
2022,03,28,14,16,12.80
2022,03,28,14,17,12.90
2022,03,28,14,18,13.00
2022,03,28,14,19,13.00
2022,03,28,14,20,13.20
2022,03,28,14,21,13.20
2022,03,28,14,22,13.30
2022,03,28,14,23,13.40
2022,03,28,14,24,13.40
2022,03,28,14,25,13.40
2022,03,28,14,26,13.40
2022,03,28,14,27,13.30
2022,03,28,14,28,13.20
2022,03,28,14,29,13.20
2022,03,28,14,30,13.10
2022,03,28,14,31,13.10
2022,03,28,14,32,13.10
2022,03,28,14,33,13.00
2022,03,28,14,34,13.00
2022,03,28,14,35,12.90
2022,03,28,14,36,12.90
2022,03,28,14,37,13.00
2022,03,28,14,38,13.00
2022,03,28,14,39,13.10
2022,03,28,14,40,13.10
2022,03,28,14,41,13.10
2022,03,28,14,42,13.10
2022,03,28,14,43,13.20
2022,03,28,14,44,13.20
2022,03,28,14,45,13.20
2022,03,28,14,46,13.30
2022,03,28,14,47,13.30
2022,03,28,14,48,13.30
2022,03,28,14,49,13.40
2022,03,28,14,50,13.40
2022,03,28,14,51,13.40
2022,03,28,14,52,13.30
2022,03,28,14,53,13.30
2022,03,28,14,54,13.30
2022,03,28,14,55,13.30
2022,03,28,14,56,13.30
2022,03,28,14,57,13.30
2022,03,28,14,58,13.30
2022,03,28,14,59,13.30
2022,03,28,15,00,13.30
2022,03,28,15,01,13.40
2022,03,28,15,02,13.40
2022,03,28,15,03,13.50
2022,03,28,15,04,13.40
2022,03,28,15,05,13.50
2022,03,28,15,06,13.50
2022,03,28,15,07,13.50
2022,03,28,15,08,13.50
2022,03,28,15,09,13.40
2022,03,28,15,10,13.50
2022,03,28,15,11,13.50
2022,03,28,15,12,13.50
2022,03,28,15,13,13.50
2022,03,28,15,14,13.50
2022,03,28,15,15,13.40
2022,03,28,15,16,13.40
2022,03,28,15,17,13.40
2022,03,28,15,18,13.50
2022,03,28,15,19,13.50
2022,03,28,15,20,13.60
2022,03,28,15,21,13.60
2022,03,28,15,22,13.70
2022,03,28,15,23,13.70
2022,03,28,15,24,13.70
2022,03,28,15,25,13.70
2022,03,28,15,26,13.70
2022,03,28,15,27,13.60
2022,03,28,15,28,13.60
2022,03,28,15,29,13.60
2022,03,28,15,30,13.60
2022,03,28,15,31,13.60
2022,03,28,15,32,13.60
2022,03,28,15,33,13.70
2022,03,28,15,34,13.70
2022,03,28,15,35,13.70
2022,03,28,15,36,13.70
2022,03,28,15,37,13.70
2022,03,28,15,38,13.80
2022,03,28,15,39,13.80
2022,03,28,15,40,13.80
2022,03,28,15,41,13.90
2022,03,28,15,42,13.90
2022,03,28,15,43,13.90
2022,03,28,15,44,13.90
2022,03,28,15,45,13.90
2022,03,28,15,46,13.90
2022,03,28,15,47,13.80
2022,03,28,15,48,13.80
2022,03,28,15,49,13.80
2022,03,28,15,50,13.80
2022,03,28,15,51,13.80
2022,03,28,15,52,13.90
2022,03,28,15,53,13.90
2022,03,28,15,54,14.00
2022,03,28,15,55,14.10
2022,03,28,15,56,14.10
2022,03,28,15,57,14.20
2022,03,28,15,58,14.20
2022,03,28,15,59,14.20
2022,03,28,16,00,14.20
2022,03,28,16,01,14.20
2022,03,28,16,02,14.20
2022,03,28,16,03,14.20
2022,03,28,16,04,14.20
2022,03,28,16,05,14.10
2022,03,28,16,06,14.10
2022,03,28,16,07,14.10
2022,03,28,16,08,14.10
2022,03,28,16,09,14.10
2022,03,28,16,10,14.10
2022,03,28,16,11,14.20
2022,03,28,16,12,14.20
2022,03,28,16,13,14.20
2022,03,28,16,14,14.20
2022,03,28,16,15,14.30
2022,03,28,16,16,14.30
2022,03,28,16,17,14.30
2022,03,28,16,18,14.30
2022,03,28,16,19,14.30
2022,03,28,16,20,14.30
2022,03,28,16,21,14.30
2022,03,28,16,22,14.30
2022,03,28,16,23,14.20
2022,03,28,16,24,14.20
2022,03,28,16,25,14.20
2022,03,28,16,26,14.20
2022,03,28,16,27,14.20
2022,03,28,16,28,14.20
2022,03,28,16,29,14.20
2022,03,28,16,30,14.20
2022,03,28,16,31,14.20
2022,03,28,16,32,14.20
2022,03,28,16,33,14.30
2022,03,28,16,34,14.30
2022,03,28,16,35,14.30
2022,03,28,16,36,14.30
2022,03,28,16,37,14.30
2022,03,28,16,38,14.30
2022,03,28,16,39,14.30
2022,03,28,16,40,14.30
2022,03,28,16,41,14.30
2022,03,28,16,42,14.30
2022,03,28,16,43,14.30
2022,03,28,16,44,14.30
2022,03,28,16,45,14.30
2022,03,28,16,46,14.30
2022,03,28,16,47,14.30
2022,03,28,16,48,14.30
2022,03,28,16,49,14.30
2022,03,28,16,50,14.30
2022,03,28,16,51,14.30
2022,03,28,16,52,14.30
2022,03,28,16,53,14.30
2022,03,28,16,54,14.30
2022,03,28,16,55,14.30
2022,03,28,16,56,14.30
2022,03,28,16,57,14.30
2022,03,28,16,58,14.30
2022,03,28,16,59,14.30
2022,03,28,17,00,14.40
2022,03,28,17,01,14.40
2022,03,28,17,02,14.40
2022,03,28,17,03,14.40
2022,03,28,17,04,14.40
2022,03,28,17,05,14.50
2022,03,28,17,06,14.50
2022,03,28,17,07,14.60
2022,03,28,17,08,14.60
2022,03,28,17,09,14.70
2022,03,28,17,10,14.60
2022,03,28,17,11,14.60
2022,03,28,17,12,14.60
2022,03,28,17,13,14.50
2022,03,28,17,14,14.50
2022,03,28,17,15,14.40
2022,03,28,17,16,14.40
2022,03,28,17,17,14.40
2022,03,28,17,18,14.40
2022,03,28,17,19,14.40
2022,03,28,17,20,14.30
2022,03,28,17,21,14.20
2022,03,28,17,22,14.10
2022,03,28,17,23,14.00
2022,03,28,17,24,14.00
2022,03,28,17,25,13.90
2022,03,28,17,26,13.90
2022,03,28,17,27,13.90
2022,03,28,17,28,13.80
2022,03,28,17,29,13.90
2022,03,28,17,30,13.90
2022,03,28,17,31,13.90
2022,03,28,17,32,13.90
2022,03,28,17,33,13.90
2022,03,28,17,34,14.00
2022,03,28,17,35,14.00
2022,03,28,17,36,14.00
2022,03,28,17,37,14.00
2022,03,28,17,38,14.10
2022,03,28,17,39,14.10
2022,03,28,17,40,14.10
2022,03,28,17,41,14.20
2022,03,28,17,42,14.20
2022,03,28,17,43,14.20
2022,03,28,17,44,14.20
2022,03,28,17,45,14.20
2022,03,28,17,46,14.10
2022,03,28,17,47,14.10
2022,03,28,17,48,14.10
2022,03,28,17,49,14.10
2022,03,28,17,50,14.10
2022,03,28,17,51,14.10
2022,03,28,17,52,14.10
2022,03,28,17,53,14.00
2022,03,28,17,54,14.00
2022,03,28,17,55,13.90
2022,03,28,17,56,13.90
2022,03,28,17,57,13.90
2022,03,28,17,58,13.90
2022,03,28,17,59,14.00
2022,03,28,18,00,14.00
2022,03,28,18,01,14.00
2022,03,28,18,02,14.10
2022,03,28,18,03,14.10
2022,03,28,18,04,14.20
2022,03,28,18,05,14.20
2022,03,28,18,06,14.30
2022,03,28,18,07,14.30
2022,03,28,18,08,14.40
2022,03,28,18,09,14.40
2022,03,28,18,10,14.50
2022,03,28,18,11,14.50
2022,03,28,18,12,14.50
2022,03,28,18,13,14.50
2022,03,28,18,14,14.50
2022,03,28,18,15,14.40
2022,03,28,18,16,14.40
2022,03,28,18,17,14.30
2022,03,28,18,18,14.30
2022,03,28,18,19,14.20
2022,03,28,18,20,14.20
2022,03,28,18,21,14.10
2022,03,28,18,22,14.10
2022,03,28,18,23,14.10
2022,03,28,18,24,14.00
2022,03,28,18,25,13.90
2022,03,28,18,26,13.90
2022,03,28,18,27,13.90
2022,03,28,18,28,13.90
2022,03,28,18,29,13.90
2022,03,28,18,30,13.90
2022,03,28,18,31,13.90
2022,03,28,18,32,13.90
2022,03,28,18,33,13.90
2022,03,28,18,34,13.90
2022,03,28,18,35,14.00
2022,03,28,18,36,14.00
2022,03,28,18,37,13.90
2022,03,28,18,38,13.90
2022,03,28,18,39,13.90
2022,03,28,18,40,13.90
2022,03,28,18,41,13.90
2022,03,28,18,42,13.90
2022,03,28,18,43,13.90
2022,03,28,18,44,13.90
2022,03,28,18,45,13.90
2022,03,28,18,46,13.90
2022,03,28,18,47,13.90
2022,03,28,18,48,13.90
2022,03,28,18,49,13.90
2022,03,28,18,50,13.90
2022,03,28,18,51,13.90
2022,03,28,18,52,13.90
2022,03,28,18,53,13.90
2022,03,28,18,54,13.90
2022,03,28,18,55,13.90
2022,03,28,18,56,13.90
2022,03,28,18,57,13.80
2022,03,28,18,58,13.80
2022,03,28,18,59,13.80
2022,03,28,19,00,13.80
2022,03,28,19,01,13.80
2022,03,28,19,02,13.80
2022,03,28,19,03,13.80
2022,03,28,19,04,13.80
2022,03,28,19,05,13.70
2022,03,28,19,06,13.80
2022,03,28,19,07,13.70
2022,03,28,19,08,13.70
2022,03,28,19,09,13.70
2022,03,28,19,10,13.70
2022,03,28,19,11,13.70
2022,03,28,19,12,13.70
2022,03,28,19,13,13.70
2022,03,28,19,14,13.60
2022,03,28,19,15,13.60
2022,03,28,19,16,13.60
2022,03,28,19,17,13.50
2022,03,28,19,18,13.50
2022,03,28,19,19,13.50
2022,03,28,19,20,13.40
2022,03,28,19,21,13.40
2022,03,28,19,22,13.30
2022,03,28,19,23,13.30
2022,03,28,19,24,13.20
2022,03,28,19,25,13.20
2022,03,28,19,26,13.10
2022,03,28,19,27,13.10
2022,03,28,19,28,13.10
2022,03,28,19,29,13.00
2022,03,28,19,30,13.00
2022,03,28,19,31,13.00
2022,03,28,19,32,12.90
2022,03,28,19,33,12.90
2022,03,28,19,34,12.90
2022,03,28,19,35,12.90
2022,03,28,19,36,12.80
2022,03,28,19,37,12.80
2022,03,28,19,38,12.80
2022,03,28,19,39,12.80
2022,03,28,19,40,12.80
2022,03,28,19,41,12.70
2022,03,28,19,42,12.70
2022,03,28,19,43,12.70
2022,03,28,19,44,12.70
2022,03,28,19,45,12.70
2022,03,28,19,46,12.60
2022,03,28,19,47,12.60
2022,03,28,19,48,12.60
2022,03,28,19,49,12.60
2022,03,28,19,50,12.60
2022,03,28,19,51,12.50
2022,03,28,19,52,12.50
2022,03,28,19,53,12.50
2022,03,28,19,54,12.40
2022,03,28,19,55,12.40
2022,03,28,19,56,12.40
2022,03,28,19,57,12.40
2022,03,28,19,58,12.30
2022,03,28,19,59,12.30
2022,03,28,20,00,12.30
2022,03,28,20,01,12.30
2022,03,28,20,02,12.30
2022,03,28,20,03,12.20
2022,03,28,20,04,12.20
2022,03,28,20,05,12.20
2022,03,28,20,06,12.20
2022,03,28,20,07,12.10
2022,03,28,20,08,12.10
2022,03,28,20,09,12.00
2022,03,28,20,10,12.00
2022,03,28,20,11,11.90
2022,03,28,20,12,11.90
2022,03,28,20,13,11.90
2022,03,28,20,14,11.80
2022,03,28,20,15,11.80
2022,03,28,20,16,11.80
2022,03,28,20,17,11.80
2022,03,28,20,18,11.80
2022,03,28,20,19,11.70
2022,03,28,20,20,11.70
2022,03,28,20,21,11.70
2022,03,28,20,22,11.70
2022,03,28,20,23,11.70
2022,03,28,20,24,11.70
2022,03,28,20,25,11.70
2022,03,28,20,26,11.60
2022,03,28,20,27,11.60
2022,03,28,20,28,11.60
2022,03,28,20,29,11.60
2022,03,28,20,30,11.50
2022,03,28,20,31,11.50
2022,03,28,20,32,11.50
2022,03,28,20,33,11.40
2022,03,28,20,34,11.40
2022,03,28,20,35,11.40
2022,03,28,20,36,11.40
2022,03,28,20,37,11.40
2022,03,28,20,38,11.40
2022,03,28,20,39,11.40
2022,03,28,20,40,11.40
2022,03,28,20,41,11.40
2022,03,28,20,42,11.40
2022,03,28,20,43,11.40
2022,03,28,20,44,11.50
2022,03,28,20,45,11.50
2022,03,28,20,46,11.50
2022,03,28,20,47,11.50
2022,03,28,20,48,11.50
2022,03,28,20,49,11.50
2022,03,28,20,50,11.50
2022,03,28,20,51,11.50
2022,03,28,20,52,11.50
2022,03,28,20,53,11.40
2022,03,28,20,54,11.40
2022,03,28,20,55,11.40
2022,03,28,20,56,11.30
2022,03,28,20,57,11.30
2022,03,28,20,58,11.20
2022,03,28,20,59,11.20
2022,03,28,21,00,11.20
2022,03,28,21,01,11.10
2022,03,28,21,02,11.10
2022,03,28,21,03,11.10
2022,03,28,21,04,11.00
2022,03,28,21,05,11.00
2022,03,28,21,06,11.00
2022,03,28,21,07,11.00
2022,03,28,21,08,10.90
2022,03,28,21,09,10.90
2022,03,28,21,10,10.90
2022,03,28,21,11,10.80
2022,03,28,21,12,10.80
2022,03,28,21,13,10.80
2022,03,28,21,14,10.80
2022,03,28,21,15,10.80
2022,03,28,21,16,10.70
2022,03,28,21,17,10.70
2022,03,28,21,18,10.60
2022,03,28,21,19,10.60
2022,03,28,21,20,10.50
2022,03,28,21,21,10.50
2022,03,28,21,22,10.40
2022,03,28,21,23,10.40
2022,03,28,21,24,10.30
2022,03,28,21,25,10.30
2022,03,28,21,26,10.30
2022,03,28,21,27,10.20
2022,03,28,21,28,10.20
2022,03,28,21,29,10.20
2022,03,28,21,30,10.20
2022,03,28,21,31,10.10
2022,03,28,21,32,10.10
2022,03,28,21,33,10.10
2022,03,28,21,34,10.10
2022,03,28,21,35,10.00
2022,03,28,21,36,10.00
2022,03,28,21,37,10.00
2022,03,28,21,38,10.00
2022,03,28,21,39,9.90
2022,03,28,21,40,9.90
2022,03,28,21,41,9.90
2022,03,28,21,42,9.80
2022,03,28,21,43,9.80
2022,03,28,21,44,9.80
2022,03,28,21,45,9.80
2022,03,28,21,46,9.80
2022,03,28,21,47,9.80
2022,03,28,21,48,9.80
2022,03,28,21,49,9.80
2022,03,28,21,50,9.80
2022,03,28,21,51,9.80
2022,03,28,21,52,9.70
2022,03,28,21,53,9.80
2022,03,28,21,54,9.80
2022,03,28,21,55,9.80
2022,03,28,21,56,9.80
2022,03,28,21,57,9.80
2022,03,28,21,58,9.80
2022,03,28,21,59,9.80
2022,03,28,22,00,9.80
2022,03,28,22,01,9.80
2022,03,28,22,02,9.80
2022,03,28,22,03,9.80
2022,03,28,22,04,9.80
2022,03,28,22,05,9.70
2022,03,28,22,06,9.70
2022,03,28,22,07,9.70
2022,03,28,22,08,9.70
2022,03,28,22,09,9.70
2022,03,28,22,10,9.60
2022,03,28,22,11,9.60
2022,03,28,22,12,9.60
2022,03,28,22,13,9.60
2022,03,28,22,14,9.60
2022,03,28,22,15,9.60
2022,03,28,22,16,9.50
2022,03,28,22,17,9.50
2022,03,28,22,18,9.50
2022,03,28,22,19,9.50
2022,03,28,22,20,9.40
2022,03,28,22,21,9.40
2022,03,28,22,22,9.40
2022,03,28,22,23,9.40
2022,03,28,22,24,9.40
2022,03,28,22,25,9.40
2022,03,28,22,26,9.40
2022,03,28,22,27,9.40
2022,03,28,22,28,9.40
2022,03,28,22,29,9.40
2022,03,28,22,30,9.40
2022,03,28,22,31,9.40
2022,03,28,22,32,9.40
2022,03,28,22,33,9.40
2022,03,28,22,34,9.40
2022,03,28,22,35,9.40
2022,03,28,22,36,9.40
2022,03,28,22,37,9.30
2022,03,28,22,38,9.30
2022,03,28,22,39,9.30
2022,03,28,22,40,9.30
2022,03,28,22,41,9.30
2022,03,28,22,42,9.30
2022,03,28,22,43,9.30
2022,03,28,22,44,9.30
2022,03,28,22,45,9.30
2022,03,28,22,46,9.30
2022,03,28,22,47,9.30
2022,03,28,22,48,9.30
2022,03,28,22,49,9.30
2022,03,28,22,50,9.30
2022,03,28,22,51,9.30
2022,03,28,22,52,9.30
2022,03,28,22,53,9.30
2022,03,28,22,54,9.30
2022,03,28,22,55,9.30
2022,03,28,22,56,9.30
2022,03,28,22,57,9.30
2022,03,28,22,58,9.30
2022,03,28,22,59,9.20
2022,03,28,23,00,9.20
2022,03,28,23,01,9.20
2022,03,28,23,02,9.20
2022,03,28,23,03,9.20
2022,03,28,23,04,9.20
2022,03,28,23,05,9.20
2022,03,28,23,06,9.20
2022,03,28,23,07,9.20
2022,03,28,23,08,9.20
2022,03,28,23,09,9.10
2022,03,28,23,10,9.10
2022,03,28,23,11,9.10
2022,03,28,23,12,9.10
2022,03,28,23,13,9.10
2022,03,28,23,14,9.10
2022,03,28,23,15,9.10
2022,03,28,23,16,9.10
2022,03,28,23,17,9.00
2022,03,28,23,18,9.00
2022,03,28,23,19,9.10
2022,03,28,23,20,9.10
2022,03,28,23,21,9.10
2022,03,28,23,22,9.10
2022,03,28,23,23,9.10
2022,03,28,23,24,9.10
2022,03,28,23,25,9.10
2022,03,28,23,26,9.10
2022,03,28,23,27,9.10
2022,03,28,23,28,9.10
2022,03,28,23,29,9.10
2022,03,28,23,30,9.10
2022,03,28,23,31,9.10
2022,03,28,23,32,9.20
2022,03,28,23,33,9.10
2022,03,28,23,34,9.10
2022,03,28,23,35,9.10
2022,03,28,23,36,9.10
2022,03,28,23,37,9.10
2022,03,28,23,38,9.10
2022,03,28,23,39,9.10
2022,03,28,23,40,9.10
2022,03,28,23,41,9.00
2022,03,28,23,42,9.00
2022,03,28,23,43,9.00
2022,03,28,23,44,9.00
2022,03,28,23,45,9.00
2022,03,28,23,46,8.90
2022,03,28,23,47,8.90
2022,03,28,23,48,8.90
2022,03,28,23,49,8.90
2022,03,28,23,50,8.90
2022,03,28,23,51,8.90
2022,03,28,23,52,8.90
2022,03,28,23,53,8.90
2022,03,28,23,54,8.90
2022,03,28,23,55,8.90
2022,03,28,23,56,8.90
2022,03,28,23,57,8.90
2022,03,28,23,58,8.90
2022,03,28,23,59,8.80
